Weather History for Mmabatho, South Africa

Change the Weather History Date:

Tuesday, October 1, 2013

  Actual Average Record
Temperature  
Mean Temperature 60 °F -  
Max Temperature 74 °F - - ()
Min Temperature 46 °F - - ()
Degree Days  
Heating Degree Days 5    
Growing Degree Days 10 (Base 50)    
Moisture  
Dew Point 35 °F    
Average Humidity 40    
Maximum Humidity 71    
Minimum Humidity 12    
Precipitation  
Precipitation 0.00 in - - ()
Sea Level Pressure  
Sea Level Pressure 30.39 in    
Wind  
Wind Speed 8 mph ()    
Max Wind Speed 16 mph    
Max Gust Speed -    
Visibility 19.0 miles    
Events      
T = Trace of Precipitation, MM = Missing Value Source: Averaged Metar Reports

Daily Weather History Graph

Daily Weather History Graph

Search for Another Location

Airport:

Trip Planner

Search our weather history database for the weather conditions in past years. The results will help you decide how hot, cold, wet, or windy it might be!

Date:

Astronomy

Oct. 01, 2013 Rise Set
Actual Time 5:57 AM SAST 6:17 PM SAST
Civil Twilight 5:34 AM SAST 6:40 PM SAST
Nautical Twilight 5:07 AM SAST 7:07 PM SAST
Astronomical Twilight 4:40 AM SAST 7:34 PM SAST
Moon 3:24 AM SAST (10/1) 3:10 PM SAST (10/1)
Length of Visible Light 13h 06m
Length of Day
12h 20m
Waning Crescent, 14% of the Moon is Illuminated
Oct 1
Waning Crescent
Oct 5
New
Oct 12
First Quarter
Oct 19
Full
Oct 27
Last Quarter

Hourly Weather History & Observations

Time (SAST) Temp. Windchill Dew Point Humidity Pressure Visibility Wind Dir Wind Speed Gust Speed Precip Events Conditions
12:00 AM 55.4 °F - 39.2 °F 54% 30.42 in - ENE 10.4 mph - N/A   Unknown
1:00 AM 53.6 °F - 39.2 °F 58% 30.42 in - NE 11.5 mph - N/A   Unknown
2:00 AM 53 °F - 40 °F 52%  in - NE 10.4 mph - -  
2:00 AM 51.8 °F - 39.2 °F 62% 30.39 in - NE 9.2 mph - N/A   Unknown
3:00 AM 51.8 °F - 39.2 °F 62% 30.39 in - NE 10.4 mph - N/A   Unknown
4:00 AM 50.0 °F - 39.2 °F 66% 30.39 in - NE 12.7 mph - N/A   Unknown
5:00 AM 50 °F - 41 °F 61%  in 19 mi NE 9.2 mph - -  
5:00 AM 50.0 °F - 39.2 °F 66% 30.42 in - NE 9.2 mph - N/A   Clear
6:00 AM 46.4 °F 40.7 °F 37.4 °F 71% 30.42 in - NE 12.7 mph - N/A   Clear
7:00 AM 50.0 °F - 37.4 °F 62% 30.45 in - NE 10.4 mph - N/A   Clear
8:00 AM 55 °F - 38 °F 42%  in 19 mi NNE 16.1 mph - -   Scattered Clouds
8:00 AM 53.6 °F - 37.4 °F 54% 30.48 in - NNE 15.0 mph - N/A   Clear
9:00 AM 57.2 °F - 37.4 °F 48% 30.48 in - NNE 13.8 mph - N/A   Clear
10:00 AM 60.8 °F - 37.4 °F 42% 30.45 in - NNE 12.7 mph - N/A   Clear
11:00 AM 64 °F - 36 °F 24%  in 19 mi North 8.1 mph - -   Scattered Clouds
11:00 AM 62.6 °F - 35.6 °F 37% 30.45 in - North 8.1 mph - N/A   Clear
12:00 PM 64.4 °F - 33.8 °F 32% 30.42 in - NE 8.1 mph - N/A   Clear
1:00 PM 66.2 °F - 33.8 °F 30% 30.39 in - North 9.2 mph - N/A   Clear
2:00 PM 71 °F - 35 °F 16%  in 19 mi ENE 8.1 mph - -   Clear
2:00 PM 69.8 °F - 33.8 °F 27% 30.36 in - ENE 8.1 mph - N/A   Clear
3:00 PM 71.6 °F - 32.0 °F 23% 30.33 in - North 5.8 mph - N/A   Clear
4:00 PM 73.4 °F - 32.0 °F 22% 30.33 in - NE 4.6 mph - N/A   Clear
5:00 PM 73 °F - 31 °F 12%  in 19 mi NE 2.3 mph - -   Clear
5:00 PM 71.6 °F - 32.0 °F 23% 30.30 in - NE 2.3 mph - N/A   Clear
6:00 PM 69.8 °F - 28.4 °F 21% 30.30 in - NNE 4.6 mph - N/A   Clear
7:00 PM 64.4 °F - 28.4 °F 26% 30.30 in - North 4.6 mph - N/A   Clear
8:00 PM 61 °F - 28 °F 17%  in 19 mi North 6.9 mph - -   Clear
8:00 PM 59.0 °F - 28.4 °F 31% 30.33 in - North 5.8 mph - N/A   Clear
9:00 PM 57.2 °F - 28.4 °F 33% 30.33 in - North 5.8 mph - N/A   Unknown
10:00 PM 59.0 °F - 30.2 °F 34% 30.36 in - NNW 5.8 mph - N/A   Unknown
11:00 PM 57 °F - 28 °F 22%  in - NNW 5.8 mph - -  
11:00 PM 55.4 °F - 28.4 °F 36% 30.36 in - NNW 4.6 mph - N/A   Unknown